Regional Weather Roundup
Issued by NWS

Home | Current Version | Previous Version | Graphics & Text | Print | Product List | Glossary On
Versions: 1 2 3 4 5 6 7 8 9 10 11 12 13 14 15 16 17 18 19 20 21 22 23 24 25 26 27
000
ASUS45 KSLC 291510
RWRUT

UTAH REGIONAL WEATHER ROUNDUP
NATIONAL WEATHER SERVICE SALT LAKE CITY UT
900 AM MDT FRI APR 29 2016

UTZ001>011-023>025-291600-

NORTHERN UTAH

CITY           SKY/WX    TMP DP  RH WIND       PRES   REMARKS
BRIGHAM CITY   CLOUDY    47  30  50 SE6       29.91R
HILL AFB       PTSUNNY   44  32  63 E12       29.89R
LOGAN          CLOUDY    46  34  62 N6        29.89R
OGDEN          CLOUDY    44  34  67 W10       29.88R
PROVO AIRPORT  PTSUNNY   45  37  76 SE7       29.89R
SALT LAKE CITY PTSUNNY   48  33  56 NW8       29.88R
VERNAL         CLOUDY    39  34  82 NE9       29.88R WCI  33
WENDOVER       PTSUNNY   48  30  49 NW16      29.90S
HEBER CITY     CLOUDY    36  34  93 W3        29.89R

$$

UTZ012>022-026-027-291600-

SOUTHERN/CENTRAL UTAH

CITY           SKY/WX    TMP DP  RH WIND       PRES   REMARKS
BLANDING       CLOUDY    43  33  66 NW5       29.94S
BRYCE CANYON   PTSUNNY   36  31  82 NW14      29.92R WCI  27
CEDAR CITY     CLOUDY    43  39  86 CALM      29.92R
DELTA          PTSUNNY   43  39  87 S7        29.92R
MILFORD        LGT RAIN  44  41  89 CALM      29.92R
MOAB/CYNLANDS  PTSUNNY   47  40  76 W10       29.84S
PRICE          CLOUDY    42  34  73 CALM      29.85R
ST GEORGE      MOSUNNY   52  43  71 CALM      29.92R
KANAB          CLOUDY    43  43 100 CALM      29.95

$$

REGIONAL REPORTS     COLORADO/ARIZONA

CITY           SKY/WX    TMP DP  RH WIND       PRES   REMARKS
CRAIG, CO      CLOUDY    40  34  79 CALM      29.88R
GRAND JUNCTION CLOUDY    42  39  89 W5        29.86R
RIFLE          MOSUNNY   45  38  76 W5        29.84R
MONTROSE       CLOUDY    42  36  79 N6        29.87R
CORTEZ         CLOUDY    39  32  76 NE3       29.87R
PAGE, AZ       SUNNY     49  43  80 W5        29.87R
GRAND CANYON   CLOUDY    40  37  89 VRB3      29.94R
KINGMAN        SUNNY     51  45  79 W3        29.92R
FLAGSTAFF      CLOUDY    39  37  92 SW9       29.94R WCI  33

$$

REGIONAL REPORTS    NEVADA/IDAHO/WYOMING

CITY           SKY/WX    TMP DP  RH WIND       PRES   REMARKS
LAS VEGAS, NV  MOSUNNY   61  42  49 CALM      29.87R
ELY            PTSUNNY   39  34  82 SE5       29.96S
ELKO           CLOUDY    44  37  76 SW6       29.95S
POCATELLO, ID  CLOUDY    47  33  58 SW12      29.90R
BURLEY         CLOUDY    45  39  79 W12       29.89R
EVANSTON, WY   CLOUDY    32  27  81 NE9       29.90S WCI  24
ROCK SPRINGS   CLOUDY    31  26  82 NE12      29.92S WCI  22

$$




USA.gov is the U.S. government's official web portal to all federal, state and local government web resources and services.